This is the latest recevied weather packets stored in our database for station/object WA4OPQ-1. If no packets are shown the sender has not sent any weather packets the latest 10 day(s).
| Time | Temp. | Humidity | Pressure | Rain* | Wind** | Luminosity | Snow |
|---|---|---|---|---|---|---|---|
| 1787562004 | 18.33° C | 92% | 1014.6 hPa | 0 mm | 0 m/s | 0 W/m² | - |
| 1787561519 | 17.78° C | 92% | 1014.9 hPa | 0 mm | 0 m/s | 0 W/m² | - |
| 1787561024 | 17.78° C | 96% | 1014.7 hPa | 0 mm | 0 m/s | 0 W/m² | - |
| 1787560479 | 17.78° C | 96% | 1014.8 hPa | 0 mm | 0 m/s | 0 W/m² | - |
| 1787559894 | 18.33° C | 95% | 1014.6 hPa | 0 mm | 0 m/s | 0 W/m² | - |
| 1787559359 | 17.78° C | 93% | 1015 hPa | 0 mm | 0 m/s | 0 W/m² | - |
| 1787558779 | 17.78° C | 95% | 1014.7 hPa | 0 mm | 0 m/s | 0 W/m² | - |
| 1787558179 | 18.33° C | 94% | 1014.3 hPa | 0 mm | 0 m/s | 0 W/m² | - |
| 1787557581 | 17.78° C | 91% | 1014.6 hPa | 0 mm | 0 m/s | 0 W/m² | - |
| 1787557014 | 18.33° C | 90% | 1014.3 hPa | 0 mm | 0 m/s | 0 W/m² | - |
| 1787556499 | 18.33° C | 91% | 1014.4 hPa | 0 mm | 0 m/s | 0 W/m² | - |
| 1787556014 | 17.78° C | 91% | 1014.6 hPa | 0 mm | 0 m/s | 0 W/m² | - |
| 1787555498 | 18.33° C | 91% | 1014.6 hPa | 0 mm | 0 m/s | 0 W/m² | - |
| 1787554909 | 18.33° C | 89% | 1014.3 hPa | 0 mm | 0 m/s | 0 W/m² | - |
| 1787554341 | 18.33° C | 91% | 1014.7 hPa | 0 mm | 0 m/s | 0 W/m² | - |
| 1787553844 | 18.89° C | 90% | 1014.5 hPa | 0 mm | 0 m/s | 0 W/m² | - |
| 1787553319 | 18.33° C | 88% | 1014.4 hPa | 0 mm | 0 m/s | 0 W/m² | - |
| 1787552744 | 18.33° C | 90% | 1014.4 hPa | 0 mm | 0 m/s | 0 W/m² | - |
| 1787552191 | 18.33° C | 91% | 1014.3 hPa | 0 mm | 0 m/s | 0 W/m² | - |
| 1787551654 | 18.89° C | 91% | 1014.8 hPa | 0 mm | 0 m/s | 0 W/m² | - |
| 1787551109 | 18.89° C | 89% | 1014.6 hPa | 0 mm | 0 m/s | 0 W/m² | - |
| 1787550529 | 19.44° C | 86% | 1014.6 hPa | 0 mm | 0 m/s | 0 W/m² | - |
| 1787549930 | 19.44° C | 86% | 1014.4 hPa | 0 mm | 0 m/s | 0 W/m² | - |
| 1787549414 | 20° C | 84% | 1014.4 hPa | 0 mm | 0 m/s | 0 W/m² | - |
| 1787548899 | 20° C | 84% | 1014.2 hPa | 0 mm | 0 m/s | 0 W/m² | - |
* Rain latest hour (hover to see other rain measurements)
** Current wind speed in m/s (hover to see current wind gust speed)